| time (UTC) | temp F | wind direction | speed MPH | gust MPH | rain 1hr in | rain 24hr in | rain mn in | humidity % | barometer mb |
| 20260505083117 | 54 | 0 | 0.0 | 5.0 | 0.00 | 0.00 | 0.00 | 84 | 1013.7 |
| 20260505082555 | 54 | 0 | 1.0 | 5.0 | 0.00 | 0.00 | 0.00 | 84 | 1013.6 |
| 20260505082057 | 54 | 175 | 2.0 | 6.0 | 0.00 | 0.00 | 0.00 | 84 | 1013.6 |
| 20260505081602 | 54 | 201 | 1.0 | 6.0 | 0.00 | 0.00 | 0.00 | 84 | 1013.6 |
| 20260505081054 | 55 | 0 | 1.0 | 5.0 | 0.00 | 0.00 | 0.00 | 83 | 1013.5 |
| 20260505080553 | 55 | 178 | 2.0 | 5.0 | 0.00 | 0.00 | 0.00 | 84 | 1013.5 |
| 20260505080056 | 55 | 171 | 0.0 | 4.0 | 0.00 | 0.00 | 0.00 | 83 | 1013.5 |
| 20260505075554 | 55 | 164 | 0.0 | 4.0 | 0.00 | 0.00 | 0.00 | 83 | 1013.4 |
| 20260505075054 | 55 | 0 | 0.0 | 5.0 | 0.00 | 0.00 | 0.00 | 83 | 1013.4 |
| 20260505074554 | 55 | 0 | 1.0 | 5.0 | 0.00 | 0.00 | 0.00 | 83 | 1013.3 |
| 20260505074055 | 55 | 0 | 0.0 | 3.0 | 0.00 | 0.00 | 0.00 | 83 | 1013.2 |
| 20260505073556 | 55 | 0 | 0.0 | 3.0 | 0.00 | 0.00 | 0.00 | 82 | 1013.1 |
| 20260505073105 | 55 | 0 | 1.0 | 3.0 | 0.00 | 0.00 | 0.00 | 82 | 1012.9 |
| 20260505072554 | 56 | 0 | 0.0 | 4.0 | 0.00 | 0.00 | 0.00 | 82 | 1012.9 |
| 20260505072054 | 56 | 164 | 1.0 | 8.0 | 0.00 | 0.00 | 0.00 | 82 | 1012.9 |
| 20260505071554 | 56 | 231 | 1.0 | 8.0 | 0.00 | 0.00 | 0.00 | 82 | 1012.7 |
| 20260505071054 | 56 | 0 | 1.0 | 5.0 | 0.00 | 0.00 | 0.00 | 82 | 1012.8 |
| 20260505070554 | 56 | 153 | 0.0 | 7.0 | 0.00 | 0.00 | 0.00 | 82 | 1012.7 |
| 20260505070058 | 56 | 0 | 1.0 | 7.0 | 0.00 | 0.00 | 0.00 | 82 | 1012.7 |
| 20260505065553 | 56 | 186 | 0.0 | 4.0 | 0.00 | 0.00 | 0.00 | 82 | 1012.7 |
| 20260505065057 | 56 | 219 | 1.0 | 8.0 | 0.00 | 0.00 | 0.00 | 81 | 1012.6 |
| 20260505064603 | 56 | 182 | 2.0 | 8.0 | 0.00 | 0.00 | 0.00 | 81 | 1012.5 |
| 20260505064055 | 57 | 168 | 3.0 | 9.0 | 0.00 | 0.00 | 0.00 | 81 | 1012.5 |
| 20260505063557 | 57 | 183 | 2.0 | 9.0 | 0.00 | 0.00 | 0.00 | 81 | 1012.4 |
| 20260505063057 | 57 | 175 | 2.0 | 8.0 | 0.00 | 0.00 | 0.00 | 81 | 1012.4 |
| 20260505062554 | 57 | 209 | 2.0 | 7.0 | 0.00 | 0.00 | 0.00 | 80 | 1012.3 |
| 20260505062052 | 58 | 196 | 1.0 | 6.0 | 0.00 | 0.00 | 0.00 | 80 | 1012.3 |
| 20260505061604 | 58 | 184 | 2.0 | 6.0 | 0.00 | 0.00 | 0.00 | 79 | 1012.3 |
| 20260505061057 | 58 | 172 | 1.0 | 9.0 | 0.00 | 0.00 | 0.00 | 79 | 1012.3 |
| 20260505060557 | 58 | 246 | 1.0 | 9.0 | 0.00 | 0.00 | 0.00 | 79 | 1012.2 |
| 20260505055558 | 59 | 188 | 1.0 | 7.0 | 0.00 | 0.00 | 0.00 | 78 | 1012.3 |
| 20260505055056 | 59 | 206 | 1.0 | 7.0 | 0.00 | 0.00 | 0.00 | 77 | 1012.3 |
| 20260505054605 | 59 | 215 | 2.0 | 10.0 | 0.00 | 0.00 | 0.00 | 76 | 1012.2 |
| 20260505054053 | 59 | 181 | 3.0 | 10.0 | 0.00 | 0.00 | 0.00 | 76 | 1012.2 |
| 20260505053553 | 60 | 184 | 4.0 | 10.0 | 0.00 | 0.00 | 0.00 | 76 | 1012.1 |
| 20260505053110 | 60 | 174 | 2.0 | 9.0 | 0.00 | 0.00 | 0.00 | 75 | 1012.0 |
| 20260505052556 | 60 | 143 | 3.0 | 8.0 | 0.00 | 0.00 | 0.00 | 75 | 1012.1 |
| 20260505052056 | 61 | 153 | 3.0 | 8.0 | 0.00 | 0.00 | 0.00 | 75 | 1012.0 |
| 20260505051556 | 61 | 180 | 2.0 | 9.0 | 0.00 | 0.00 | 0.00 | 74 | 1012.0 |
| 20260505051054 | 62 | 234 | 4.0 | 9.0 | 0.00 | 0.00 | 0.00 | 74 | 1012.0 |
| 20260505050553 | 62 | 169 | 1.0 | 6.0 | 0.00 | 0.00 | 0.00 | 73 | 1011.9 |
| 20260505041613 | 66 | 229 | 2.0 | 5.0 | 0.00 | 0.00 | 0.00 | 70 | 1011.2 |
| 20260505041054 | 66 | 190 | 1.0 | 9.0 | 0.00 | 0.00 | 0.00 | 70 | 1011.1 |
| 20260505040553 | 66 | 229 | 1.0 | 9.0 | 0.00 | 0.00 | 0.00 | 70 | 1010.9 |
| 20260505040057 | 66 | 235 | 0.0 | 8.0 | 0.00 | 0.00 | 0.00 | 71 | 1010.8 |
| 20260505035557 | 66 | 231 | 1.0 | 8.0 | 0.00 | 0.00 | 0.00 | 71 | 1010.8 |
| 20260505035057 | 66 | 243 | 1.0 | 5.0 | 0.00 | 0.00 | 0.00 | 71 | 1010.8 |
| 20260505034601 | 66 | 261 | 1.0 | 7.0 | 0.00 | 0.00 | 0.00 | 71 | 1010.6 |
| 20260505034057 | 67 | 242 | 1.0 | 7.0 | 0.00 | 0.00 | 0.00 | 70 | 1010.4 |
| 20260505033554 | 67 | 226 | 2.0 | 5.0 | 0.00 | 0.00 | 0.00 | 71 | 1010.4 |
| 20260505033056 | 67 | 146 | 1.0 | 4.0 | 0.00 | 0.00 | 0.00 | 71 | 1010.4 |
| 20260505032557 | 67 | 267 | 1.0 | 4.0 | 0.00 | 0.00 | 0.00 | 71 | 1010.4 |
| 20260505032056 | 68 | 232 | 1.0 | 7.0 | 0.00 | 0.00 | 0.00 | 71 | 1010.4 |
| 20260505031607 | 68 | 248 | 0.0 | 9.0 | 0.00 | 0.00 | 0.00 | 71 | 1010.3 |
| 20260505031103 | 68 | 269 | 3.0 | 9.0 | 0.00 | 0.00 | 0.00 | 70 | 1010.2 |
| 20260505030556 | 69 | 0 | 1.0 | 6.0 | 0.00 | 0.00 | 0.00 | 70 | 1010.2 |
| 20260505030057 | 69 | 153 | 2.0 | 6.0 | 0.00 | 0.00 | 0.00 | 70 | 1010.0 |
| 20260505025553 | 69 | 0 | 1.0 | 6.0 | 0.00 | 0.00 | 0.00 | 70 | 1009.9 |
| 20260505025059 | 69 | 192 | 0.0 | 4.0 | 0.00 | 0.00 | 0.00 | 69 | 1009.9 |
| 20260505024555 | 69 | 187 | 1.0 | 4.0 | 0.00 | 0.00 | 0.00 | 69 | 1009.9 |
| 20260505024056 | 69 | 270 | 2.0 | 4.0 | 0.00 | 0.00 | 0.00 | 68 | 1009.9 |
| 20260505023557 | 70 | 181 | 0.0 | 4.0 | 0.00 | 0.00 | 0.00 | 68 | 1009.8 |
| 20260505023101 | 70 | 173 | 0.0 | 6.0 | 0.00 | 0.00 | 0.00 | 68 | 1009.9 |
| 20260505022554 | 70 | 0 | 1.0 | 8.0 | 0.00 | 0.00 | 0.00 | 68 | 1009.7 |
| 20260505022057 | 70 | 269 | 4.0 | 8.0 | 0.00 | 0.00 | 0.00 | 67 | 1009.7 |
| 20260505021600 | 70 | 197 | 2.0 | 9.0 | 0.00 | 0.00 | 0.00 | 67 | 1009.8 |
| 20260505021053 | 71 | 200 | 2.0 | 9.0 | 0.00 | 0.00 | 0.00 | 67 | 1009.8 |
| 20260505020553 | 71 | 220 | 1.0 | 10.0 | 0.00 | 0.00 | 0.00 | 66 | 1009.8 |
| 20260505020055 | 71 | 166 | 2.0 | 10.0 | 0.00 | 0.00 | 0.00 | 67 | 1009.8 |
| 20260505015557 | 71 | 193 | 1.0 | 10.0 | 0.00 | 0.00 | 0.00 | 66 | 1009.8 |
| 20260505015056 | 71 | 273 | 2.0 | 12.0 | 0.00 | 0.00 | 0.00 | 65 | 1009.7 |
| 20260505014556 | 71 | 138 | 3.0 | 12.0 | 0.00 | 0.00 | 0.00 | 65 | 1009.8 |
| 20260505014058 | 71 | 0 | 2.0 | 9.0 | 0.00 | 0.00 | 0.00 | 65 | 1009.8 |
| 20260505013556 | 72 | 166 | 1.0 | 6.0 | 0.00 | 0.00 | 0.00 | 64 | 1009.9 |
| 20260505013100 | 72 | 220 | 0.0 | 7.0 | 0.00 | 0.00 | 0.00 | 65 | 1010.0 |
| 20260505012554 | 72 | 184 | 3.0 | 8.0 | 0.00 | 0.00 | 0.00 | 64 | 1010.0 |
| 20260505012057 | 72 | 184 | 3.0 | 8.0 | 0.00 | 0.00 | 0.00 | 64 | 1009.9 |
| 20260505011557 | 72 | 161 | 1.0 | 8.0 | 0.00 | 0.00 | 0.00 | 63 | 1010.1 |
| 20260505011054 | 73 | 205 | 0.0 | 8.0 | 0.00 | 0.00 | 0.00 | 64 | 1010.1 |
| 20260505010553 | 72 | 256 | 2.0 | 8.0 | 0.00 | 0.00 | 0.00 | 63 | 1010.2 |
| 20260505010058 | 72 | 167 | 1.0 | 9.0 | 0.00 | 0.00 | 0.00 | 63 | 1010.2 |
| 20260505005554 | 71 | 278 | 3.0 | 10.0 | 0.00 | 0.00 | 0.00 | 65 | 1010.3 |
| 20260505005056 | 72 | 178 | 2.0 | 10.0 | 0.00 | 0.00 | 0.00 | 64 | 1010.4 |
| 20260505004556 | 72 | 265 | 1.0 | 9.0 | 0.00 | 0.00 | 0.00 | 64 | 1010.4 |
| 20260505004055 | 72 | 289 | 3.0 | 9.0 | 0.00 | 0.00 | 0.00 | 64 | 1010.4 |
| 20260505003554 | 72 | 146 | 3.0 | 8.0 | 0.00 | 0.00 | 0.00 | 63 | 1010.3 |
| 20260505003057 | 72 | 246 | 2.0 | 9.0 | 0.00 | 0.00 | 0.00 | 63 | 1010.4 |
| 20260505002555 | 72 | 195 | 3.0 | 9.0 | 0.00 | 0.00 | 0.00 | 63 | 1010.5 |
| 20260505002056 | 72 | 188 | 2.0 | 10.0 | 0.00 | 0.00 | 0.00 | 64 | 1010.4 |
| 20260505001556 | 71 | 261 | 4.0 | 10.0 | 0.00 | 0.00 | 0.00 | 63 | 1010.6 |
| 20260505001053 | 72 | 233 | 3.0 | 9.0 | 0.00 | 0.00 | 0.00 | 63 | 1010.6 |
| 20260505000554 | 72 | 202 | 3.0 | 8.0 | 0.00 | 0.00 | 0.00 | 63 | 1010.6 |
| 20260505000107 | 71 | 180 | 3.0 | 12.0 | 0.00 | 0.00 | 0.00 | 64 | 1010.6 |
| 20260504235557 | 72 | 196 | 2.0 | 13.0 | 0.00 | 0.00 | 0.00 | 63 | 1010.6 |
| 20260504235054 | 72 | 178 | 2.0 | 13.0 | 0.00 | 0.00 | 0.00 | 63 | 1010.6 |
| 20260504234624 | 71 | 170 | 5.0 | 13.0 | 0.00 | 0.00 | 0.00 | 64 | 1010.7 |
| 20260504234053 | 72 | 236 | 3.0 | 11.0 | 0.00 | 0.00 | 0.00 | 62 | 1010.7 |
| 20260504233553 | 72 | 0 | 3.0 | 11.0 | 0.00 | 0.00 | 0.00 | 63 | 1010.7 |
| 20260504233058 | 71 | 242 | 4.0 | 9.0 | 0.00 | 0.00 | 0.00 | 63 | 1010.8 |
| 20260504232554 | 72 | 256 | 2.0 | 8.0 | 0.00 | 0.00 | 0.00 | 62 | 1010.8 |
| 20260504232054 | 72 | 146 | 2.0 | 10.0 | 0.00 | 0.00 | 0.00 | 62 | 1010.8 |
| 20260504231602 | 71 | 145 | 3.0 | 11.0 | 0.00 | 0.00 | 0.00 | 64 | 1010.9 |
| 20260504231054 | 72 | 158 | 2.0 | 11.0 | 0.00 | 0.00 | 0.00 | 62 | 1010.9 |
| 20260504230558 | 72 | 153 | 3.0 | 10.0 | 0.00 | 0.00 | 0.00 | 63 | 1010.9 |
| 20260504230058 | 71 | 151 | 4.0 | 10.0 | 0.00 | 0.00 | 0.00 | 62 | 1010.9 |
| 20260504225553 | 71 | 171 | 3.0 | 9.0 | 0.00 | 0.00 | 0.00 | 63 | 1011.0 |
| 20260504225053 | 71 | 0 | 3.0 | 10.0 | 0.00 | 0.00 | 0.00 | 63 | 1011.0 |
| 20260504224556 | 71 | 210 | 3.0 | 10.0 | 0.00 | 0.00 | 0.00 | 61 | 1011.1 |
| 20260504224056 | 71 | 105 | 2.0 | 9.0 | 0.00 | 0.00 | 0.00 | 63 | 1011.1 |
| 20260504223554 | 71 | 179 | 3.0 | 9.0 | 0.00 | 0.00 | 0.00 | 62 | 1011.1 |
| 20260504223057 | 70 | 174 | 2.0 | 9.0 | 0.00 | 0.00 | 0.00 | 64 | 1011.2 |
| 20260504222557 | 70 | 166 | 3.0 | 9.0 | 0.00 | 0.00 | 0.00 | 63 | 1011.2 |
| 20260504222053 | 69 | 205 | 4.0 | 11.0 | 0.00 | 0.00 | 0.00 | 65 | 1011.1 |
| 20260504221600 | 70 | 138 | 3.0 | 11.0 | 0.00 | 0.00 | 0.00 | 63 | 1011.2 |
| 20260504221056 | 69 | 161 | 3.0 | 10.0 | 0.00 | 0.00 | 0.00 | 65 | 1011.2 |
| 20260504220554 | 69 | 143 | 5.0 | 10.0 | 0.00 | 0.00 | 0.00 | 65 | 1011.3 |
| 20260504220059 | 69 | 161 | 4.0 | 10.0 | 0.00 | 0.00 | 0.00 | 65 | 1011.5 |
| 20260504215554 | 69 | 130 | 3.0 | 10.0 | 0.00 | 0.00 | 0.00 | 64 | 1011.6 |
| 20260504215053 | 70 | 271 | 2.0 | 13.0 | 0.00 | 0.00 | 0.00 | 64 | 1011.6 |
| 20260504214554 | 68 | 340 | 6.0 | 13.0 | 0.00 | 0.00 | 0.00 | 65 | 1011.7 |
| 20260504214057 | 68 | 160 | 2.0 | 7.0 | 0.00 | 0.00 | 0.00 | 65 | 1011.7 |
| 20260504213554 | 69 | 159 | 4.0 | 6.0 | 0.00 | 0.00 | 0.00 | 65 | 1011.8 |
| 20260504213054 | 69 | 171 | 1.0 | 6.0 | 0.00 | 0.00 | 0.00 | 65 | 1011.9 |
| 20260504212557 | 67 | 250 | 1.0 | 8.0 | 0.00 | 0.00 | 0.00 | 67 | 1011.8 |
| 20260504212054 | 67 | 197 | 2.0 | 8.0 | 0.00 | 0.00 | 0.00 | 68 | 1012.0 |
| 20260504211557 | 68 | 252 | 3.0 | 8.0 | 0.00 | 0.00 | 0.00 | 67 | 1012.0 |
| 20260504211054 | 67 | 181 | 3.0 | 8.0 | 0.00 | 0.00 | 0.00 | 67 | 1012.1 |
| 20260504210556 | 67 | 233 | 3.0 | 10.0 | 0.00 | 0.00 | 0.00 | 68 | 1012.1 |
| 20260504210109 | 67 | 283 | 2.0 | 10.0 | 0.00 | 0.00 | 0.00 | 68 | 1012.3 |
| 20260504205554 | 66 | 300 | 4.0 | 10.0 | 0.00 | 0.00 | 0.00 | 67 | 1012.3 |
| 20260504205056 | 65 | 252 | 2.0 | 9.0 | 0.00 | 0.00 | 0.00 | 70 | 1012.4 |
| 20260504204603 | 65 | 240 | 3.0 | 9.0 | 0.00 | 0.00 | 0.00 | 70 | 1012.5 |
| 20260504204126 | 65 | 139 | 3.0 | 9.0 | 0.00 | 0.00 | 0.00 | 70 | 1012.6 |
| 20260504203554 | 64 | 147 | 4.0 | 9.0 | 0.00 | 0.00 | 0.00 | 72 | 1012.5 |
| 20260504203058 | 64 | 192 | 2.0 | 8.0 | 0.00 | 0.00 | 0.00 | 71 | 1012.5 |
| 20260504202554 | 65 | 289 | 2.0 | 8.0 | 0.00 | 0.00 | 0.00 | 71 | 1012.7 |
| 20260504202057 | 64 | 247 | 3.0 | 8.0 | 0.00 | 0.00 | 0.00 | 73 | 1012.8 |
| 20260504201614 | 63 | 286 | 3.0 | 8.0 | 0.00 | 0.00 | 0.00 | 71 | 1012.8 |
| 20260504201054 | 64 | 257 | 3.0 | 9.0 | 0.00 | 0.00 | 0.00 | 73 | 1012.8 |
| 20260504200554 | 63 | 215 | 4.0 | 12.0 | 0.00 | 0.00 | 0.00 | 74 | 1012.9 |
| 20260504195553 | 62 | 297 | 2.0 | 8.0 | 0.00 | 0.00 | 0.00 | 74 | 1012.8 |
| 20260504195053 | 62 | 278 | 4.0 | 8.0 | 0.00 | 0.00 | 0.00 | 73 | 1012.9 |
| 20260504194609 | 62 | 284 | 2.0 | 8.0 | 0.00 | 0.00 | 0.00 | 74 | 1012.9 |
| 20260504194053 | 61 | 245 | 3.0 | 8.0 | 0.00 | 0.00 | 0.00 | 74 | 1012.9 |
| 20260504193553 | 62 | 180 | 2.0 | 11.0 | 0.00 | 0.00 | 0.00 | 75 | 1013.0 |
| 20260504193058 | 61 | 309 | 4.0 | 11.0 | 0.00 | 0.00 | 0.00 | 75 | 1012.9 |
| 20260504192553 | 62 | 281 | 2.0 | 8.0 | 0.00 | 0.00 | 0.00 | 73 | 1013.0 |
| 20260504192054 | 62 | 192 | 3.0 | 8.0 | 0.00 | 0.00 | 0.00 | 73 | 1013.1 |
| 20260504191558 | 61 | 186 | 2.0 | 12.0 | 0.00 | 0.00 | 0.00 | 75 | 1013.1 |
| 20260504191054 | 61 | 264 | 3.0 | 12.0 | 0.00 | 0.00 | 0.00 | 76 | 1013.2 |
| 20260504190554 | 61 | 186 | 2.0 | 7.0 | 0.00 | 0.00 | 0.00 | 76 | 1013.1 |
| 20260504190125 | 61 | 169 | 2.0 | 8.0 | 0.00 | 0.00 | 0.00 | 75 | 1013.2 |
| 20260504185556 | 60 | 244 | 2.0 | 9.0 | 0.00 | 0.00 | 0.00 | 78 | 1013.3 |
| 20260504185053 | 60 | 295 | 3.0 | 9.0 | 0.00 | 0.00 | 0.00 | 77 | 1013.3 |
| 20260504184600 | 60 | 220 | 3.0 | 10.0 | 0.00 | 0.00 | 0.00 | 78 | 1013.3 |
| 20260504184056 | 60 | 138 | 3.0 | 10.0 | 0.00 | 0.00 | 0.00 | 78 | 1013.3 |
| 20260504183558 | 59 | 232 | 2.0 | 9.0 | 0.00 | 0.00 | 0.00 | 79 | 1013.3 |
| 20260504183057 | 59 | 313 | 2.0 | 8.0 | 0.00 | 0.00 | 0.00 | 79 | 1013.3 |
| 20260504182557 | 59 | 185 | 3.0 | 7.0 | 0.00 | 0.00 | 0.00 | 79 | 1013.4 |
| 20260504182053 | 59 | 169 | 3.0 | 7.0 | 0.00 | 0.00 | 0.00 | 79 | 1013.4 |
| 20260504181603 | 59 | 172 | 2.0 | 10.0 | 0.00 | 0.00 | 0.00 | 80 | 1013.3 |
| 20260504181054 | 58 | 130 | 3.0 | 10.0 | 0.00 | 0.00 | 0.00 | 79 | 1013.3 |
| 20260504180554 | 59 | 170 | 1.0 | 9.0 | 0.00 | 0.00 | 0.00 | 79 | 1013.4 |
| 20260504180201 | 58 | 144 | 3.0 | 9.0 | 0.00 | 0.00 | 0.00 | 80 | 1013.3 |
| 20260504175557 | 58 | 198 | 3.0 | 12.0 | 0.00 | 0.00 | 0.00 | 80 | 1013.3 |
| 20260504175101 | 58 | 179 | 4.0 | 12.0 | 0.00 | 0.00 | 0.00 | 80 | 1013.2 |
| 20260504174558 | 58 | 196 | 3.0 | 9.0 | 0.00 | 0.00 | 0.00 | 81 | 1013.1 |
| 20260504174056 | 58 | 234 | 3.0 | 9.0 | 0.00 | 0.00 | 0.00 | 81 | 1013.2 |
| 20260504173558 | 57 | 234 | 4.0 | 12.0 | 0.00 | 0.00 | 0.00 | 80 | 1013.1 |
| 20260504173114 | 57 | 192 | 3.0 | 12.0 | 0.00 | 0.00 | 0.00 | 81 | 1013.2 |
| 20260504172556 | 57 | 234 | 3.0 | 11.0 | 0.00 | 0.00 | 0.00 | 81 | 1013.2 |
| 20260504172053 | 57 | 243 | 4.0 | 11.0 | 0.00 | 0.00 | 0.00 | 80 | 1013.2 |
| 20260504171558 | 57 | 200 | 3.0 | 11.0 | 0.00 | 0.00 | 0.00 | 81 | 1013.2 |
| 20260504171057 | 57 | 207 | 3.0 | 11.0 | 0.00 | 0.00 | 0.00 | 82 | 1013.2 |
| 20260504170554 | 57 | 148 | 3.0 | 11.0 | 0.00 | 0.00 | 0.00 | 83 | 1013.1 |
| 20260504151054 | 54 | 0 | 3.0 | 8.0 | 0.00 | 0.00 | 0.00 | 86 | 1012.9 |
| 20260504150556 | 54 | 173 | 2.0 | 8.0 | 0.00 | 0.00 | 0.00 | 87 | 1012.8 |
| 20260504141053 | 54 | 290 | 3.0 | 10.0 | 0.00 | 0.00 | 0.00 | 87 | 1012.2 |
| 20260504140556 | 54 | 165 | 0.0 | 7.0 | 0.00 | 0.00 | 0.00 | 87 | 1012.0 |
| 20260504140115 | 54 | 0 | 2.0 | 7.0 | 0.00 | 0.00 | 0.00 | 87 | 1012.1 |
| 20260504130557 | 53 | 0 | 1.0 | 8.0 | 0.00 | 0.00 | 0.00 | 87 | 1011.1 |
| 20260504120114 | 55 | 202 | 3.0 | 9.0 | 0.00 | 0.00 | 0.00 | 82 | 1010.1 |
| 20260504110557 | 58 | 204 | 1.0 | 5.0 | 0.00 | 0.00 | 0.00 | 78 | 1009.7 |
| 20260504100554 | 61 | 0 | 3.0 | 11.0 | 0.00 | 0.00 | 0.00 | 73 | 1009.0 |